Flag for India Weather past 2 weeks in Muktsar, Punjab, India

Now
81 °F

Haze.


Feels Like: 81 °F
Forecast: 78 / 102 °F
Wind: 9 mph from Southeast

Location: Lahore Airport

Current Time: Apr 26, 2015 at 3:34:13 AM

Latest Report: Apr 26, 2015 at 2:25 AM


Visibility: 2 mi

Pressure: 29.74 "Hg

Humidity: 45%

Dew point: 57 °F

Location of MuktsarLocation

Historic Weather in Muktsar — Graph

°F

Muktsar temperature yesterday

Maximum temperature yesterday: 104 °F (at 1:55 PM)
Minimum temperature yesterday: 75 °F (at 5:25 AM)
Average temperature yesterday: 91 °F

Past Weeks' High & Low Weather Summary

 TemperatureHumidityPressure
High104 °F (Apr 24, 3:25 PM)88% (Apr 16, 4:31 AM)30.12 "Hg (Apr 16, 4:31 AM)
Low66 °F (Apr 17, 4:25 AM)12% (Apr 21, 4:25 PM)29.56 "Hg (Apr 19, 6:25 PM)
Average84 °F45%29.80 "Hg
* Reported Apr 11 1:55 AM — Apr 26 2:25 AM, Muktsar, Weather by CustomWeather, © 2015

Note: Actual official high and low records may vary slightly from our data, if they occured in-between our weather recording intervals... More about our weather records

Advertising

Muktsar weather history for previous 24 hours

 ConditionsComfort  
Time TempWeatherWind HumidityBarometerVisibility
2:25 AM
Sun, Apr 26
81 °FHaze.9 mph45%29.74 "Hg2 mi
1:55 AM82 °FHaze.8 mph40%29.74 "Hg2 mi
12:55 AM82 °FHaze.9 mph37%29.74 "Hg2 mi
12:25 AM84 °FHaze.8 mph35%29.74 "Hg2 mi
11:55 PM
Sat, Apr 25
86 °FHaze.6 mph33%29.71 "Hg3 mi
11:25 PM88 °FHaze.3 mph31%29.71 "Hg3 mi
10:55 PM88 °FHaze.5 mph33%29.71 "Hg3 mi
10:25 PM88 °FHaze.5 mph33%29.71 "Hg3 mi
9:55 PM91 °FHaze.6 mph24%29.71 "Hg3 mi
9:25 PM93 °FHaze.7 mph23%29.71 "Hg3 mi
8:55 PM93 °FClear.6 mph23%29.68 "Hg4 mi
8:25 PM95 °FClear.3 mph22%29.68 "Hg4 mi
7:55 PM97 °FClear.5 mph19%29.68 "Hg4 mi
7:25 PM99 °FClear.5 mph18%29.65 "Hg4 mi
6:55 PM100 °FClear.5 mph15%29.65 "Hg4 mi
6:25 PM100 °FClear.5 mph15%29.65 "Hg4 mi
5:55 PM102 °FClear.6 mph13%29.65 "Hg5 mi
5:25 PM102 °FClear.7 mph13%29.65 "Hg5 mi
4:55 PM104 °FClear.5 mph13%29.65 "Hg6 mi
4:25 PM104 °FClear.6 mph13%29.65 "Hg6 mi
3:55 PM104 °FClear.7 mph13%29.65 "Hg6 mi
3:25 PM104 °FClear.No wind13%29.68 "Hg6 mi
2:55 PM104 °FPassing clouds.3 mph13%29.68 "Hg6 mi
2:25 PM104 °FPassing clouds.3 mph13%29.68 "Hg6 mi
1:55 PM104 °FPassing clouds.No wind15%29.71 "Hg6 mi
1:25 PM102 °FClear.No wind16%29.71 "Hg6 mi
12:55 PM100 °FClear.3 mph18%29.71 "Hg5 mi
12:25 PM99 °FClear.3 mph21%29.74 "Hg5 mi
12:00 PM99 °FClear.5 mph22%29.74 "Hg5 mi
11:25 AM99 °FClear.3 mph22%29.74 "Hg5 mi
10:55 AM95 °FClear.3 mph25%29.74 "Hg4 mi
10:25 AM93 °FClear.3 mph26%29.74 "Hg4 mi
9:55 AM90 °FClear.5 mph31%29.74 "Hg4 mi
8:55 AM82 °FHaze.7 mph45%29.74 "Hg2 mi
8:25 AM81 °FClear.7 mph51%29.74 "Hg2 mi
7:55 AM77 °FClear.7 mph54%29.74 "Hg2 mi
7:25 AM77 °FClear.3 mph54%29.71 "Hg2 mi
5:25 AM75 °FClear.5 mph61%29.68 "Hg2 mi
4:55 AM77 °FClear.No wind54%29.68 "Hg2 mi
4:25 AM77 °FClear.No wind54%29.68 "Hg2 mi
3:55 AM79 °FClear.No wind51%29.65 "Hg2 mi
3:25 AM79 °FClear.3 mph51%29.68 "Hg2 mi
Weather by CustomWeather, © 2015

See weather overviewHow to use our weather pages